Weather History for Vancouver, BC

Change the Weather History Date:

Monday, October 29, 2012

  Actual Average Record
Temperature  
Mean Temperature 52 °F -  
Max Temperature 57 °F 49 °F 62 °F (2014)
Min Temperature 48 °F 39 °F 33 °F (2013)
Degree Days  
Heating Degree Days 12    
Growing Degree Days 2 (Base 50)    
Moisture  
Dew Point 49 °F    
Average Humidity 89    
Maximum Humidity 100    
Minimum Humidity 76    
Precipitation  
Precipitation 0.35 in - - ()
Sea Level Pressure  
Sea Level Pressure 29.84 in    
Wind  
Wind Speed 5 mph ()    
Max Wind Speed 16 mph    
Max Gust Speed 23 mph    
Visibility 8.2 miles    
Events Rain    
Averages and records for this station are not official NWS values.
T = Trace of Precipitation, MM = Missing Value Source: Averaged Metar Reports

Daily Weather History Graph

Daily Weather History Graph

Search for Another Location

Airport:

Trip Planner

Search our weather history database for the weather conditions in past years. The results will help you decide how hot, cold, wet, or windy it might be!

Date:

Astronomy

Oct. 29, 2012 Rise Set
Actual Time 7:56 AM PDT 5:55 PM PDT
Civil Twilight 7:23 AM PDT 6:28 PM PDT
Nautical Twilight 6:45 AM PDT 7:05 PM PDT
Astronomical Twilight 6:09 AM PDT 7:42 PM PDT
Moon 5:46 PM PDT 7:55 AM PDT
Length of Visible Light 11h 05m
Length of Day
9h 58m
Full, 100% of the Moon is Illuminated
Oct 29
Full
Oct 29
Full
Nov 6
Last Quarter
Nov 13
New
Nov 20
First Quarter

Hourly Weather History & Observations

Time (PDT) Temp. Dew Point Humidity Pressure Visibility Wind Dir Wind Speed Gust Speed Precip Events Conditions
12:00 AM 50.0 °F 48.2 °F 94% 29.78 in 8.0 mi NE 6.9 mph - N/A Rain Light Rain
1:00 AM 50.0 °F 48.2 °F 94% 29.78 in 8.0 mi NE 4.6 mph - N/A Rain Light Rain
2:00 AM 50.0 °F 48.2 °F 94% 29.75 in 5.0 mi NNE 6.9 mph - N/A Rain Light Rain
3:00 AM 50.0 °F 48.2 °F 94% 29.75 in 5.0 mi NE 4.6 mph - N/A Rain Light Rain
4:00 AM 50.0 °F 48.2 °F 94% 29.74 in 5.0 mi SE 3.5 mph - N/A Rain Light Rain
5:00 AM 49 °F 47 °F 92% 29.72 in 7 mi ESE 5.8 mph - - Rain Light Rain
5:00 AM 48.2 °F 48.2 °F 100% 29.72 in 8.0 mi ESE 5.8 mph - N/A Rain Light Rain
6:00 AM 48.2 °F 46.4 °F 93% 29.71 in 8.0 mi East 3.5 mph - N/A Rain Light Rain Showers
7:00 AM 48.2 °F 46.4 °F 93% 29.71 in 8.0 mi North 4.6 mph - N/A Rain Light Rain Showers
7:53 AM 48.2 °F - N/A% - 6.0 mi Calm Calm - N/A Rain Light Rain Showers
8:00 AM 48.2 °F 46.4 °F 93% 29.75 in 6.0 mi WNW 6.9 mph - N/A Rain Light Rain Showers
8:31 AM 48.2 °F - N/A% - 6.0 mi NW 2.3 mph - N/A Rain Light Rain Showers
9:00 AM 48.2 °F 46.4 °F 93% 29.77 in 15.0 mi ESE 3.5 mph - N/A Rain Light Rain Showers
10:00 AM 50.0 °F 48.2 °F 94% 29.81 in 6.0 mi South 3.5 mph - N/A Rain Light Rain Showers
11:00 AM 50 °F 48 °F 90% 29.83 in 4 mi SE 5.8 mph - - Rain Light Rain Showers
11:00 AM 50.0 °F 48.2 °F 94% 29.83 in 4.0 mi SE 5.8 mph - N/A Rain Light Rain Showers
11:27 AM 50.0 °F - N/A% - 3.0 mi East 5.8 mph - N/A Rain Light Rain Showers
11:55 AM 50.0 °F - N/A% - 2.0 mi ENE 5.8 mph - N/A Rain Light Rain Showers
12:00 PM 50.0 °F 48.2 °F 94% 29.85 in 2.0 mi East 5.8 mph - N/A Rain Light Rain Showers
1:00 PM 51.8 °F 50.0 °F 94% 29.87 in 2.0 mi ENE 2.3 mph - N/A Rain Light Rain Showers
1:40 PM 51.8 °F - N/A% - 8.0 mi North 4.6 mph - N/A Rain Light Rain Showers
2:00 PM 51.8 °F 50.0 °F 94% 29.88 in 10.0 mi NNW 4.6 mph - N/A Rain Light Rain Showers
2:34 PM 53.6 °F - N/A% - 10.0 mi NNE 4.6 mph - N/A   Mostly Cloudy
3:00 PM 55.4 °F 51.8 °F 88% 29.90 in 12.0 mi ENE 3.5 mph - N/A   Mostly Cloudy
4:00 PM 57.2 °F 50.0 °F 77% 29.92 in 12.0 mi SE 9.2 mph - N/A   Mostly Cloudy
5:00 PM 55 °F 50 °F 76% 29.93 in 12 mi South 2.3 mph - -   Partly Cloudy
5:00 PM 55.4 °F 50.0 °F 82% 29.93 in 12.0 mi Calm Calm - N/A   Mostly Cloudy
6:00 PM 55.4 °F 48.2 °F 77% 29.93 in 15.0 mi South 16.1 mph 23.0 mph N/A   Scattered Clouds
7:00 PM 55.4 °F 48.2 °F 77% 29.93 in 12.0 mi South 12.7 mph - N/A   Mostly Cloudy
8:00 PM 55.4 °F 48.2 °F 77% 29.93 in 12.0 mi SSE 9.2 mph - N/A   Mostly Cloudy
9:00 PM 57.2 °F 50.0 °F 77% 29.93 in 12.0 mi South 13.8 mph 19.6 mph N/A   Overcast
9:14 PM 55.4 °F - N/A% - 10.0 mi SE 10.4 mph - N/A Rain Light Rain Showers
10:00 PM 53.6 °F 50.0 °F 88% 29.92 in 10.0 mi SE 11.5 mph - N/A Rain Light Rain Showers
11:00 PM 54 °F 50 °F 80% 29.92 in 10 mi SE 9.2 mph - - Rain Light Rain Showers
11:00 PM 53.6 °F 50.0 °F 88% 29.92 in 10.0 mi SE 8.1 mph - N/A Rain Light Rain Showers
11:22 PM 53.6 °F - N/A% - 12.0 mi SSE 10.4 mph - N/A   Mostly Cloudy